Regional Weather Roundup
Issued by NWS

Home | Current Version | Previous Version | Graphics & Text | Print | Product List | Glossary On
Versions: 1 2 3 4 5 6 7 8 9 10 11 12 13 14 15 16 17 18 19 20 21 22 23 24 25 26 27 28 29 30 31 32 33 34 35 36 37 38 39 40 41 42 43 44 45 46 47 48 49 50
000
ASUS45 KPSR 291810
RWRAZ

ARIZONA REGIONAL HOURLY WEATHER ROUNDUP
NATIONAL WEATHER SERVICE PHOENIX AZ
1100 AM MST TUE JUL 29 2014

NOTE: FAIR INDICATES FEW OR NO CLOUDS BELOW 12,000 FEET WITH NO
SIGNIFICANT WEATHER AND/OR OBSTRUCTIONS TO VISIBILITY.

AZZ001>003-036-291900-
NORTHWEST ARIZONA

CITY           SKY/WX    TMP DP  RH WIND       PRES   REMARKS
BULLHEAD CITY  SUNNY     99  59  26 W6        29.95F
KINGMAN        MOSUNNY   91  54  28 SW14      30.14F
6HR MIN TEMP:  69; 6HR MAX TEMP:  92;

$$

AZZ004>008-015-016-018-291900-
NORTH CENTRAL ARIZONA

CITY           SKY/WX    TMP DP  RH WIND       PRES   REMARKS
GRAND CANYON   MOSUNNY   78  49  35 SW10      30.38F
6HR MIN TEMP:  50; 6HR MAX TEMP:  78;

WILLIAMS       MOSUNNY   77  48  36 S12G18    30.45S
PRESCOTT       MOSUNNY   83  54  36 MISG      30.27S
6HR MIN TEMP:  61; 6HR MAX TEMP:  83;

FLAGSTAFF      PTSUNNY   77  47  34 S12       30.41F
6HR MIN TEMP:  50; 6HR MAX TEMP:  77;

PAYSON         MOSUNNY   86  54  32 W7G14     30.29F
PAGE           SUNNY     88  53  30 VRB6      30.19F
6HR MIN TEMP:  71; 6HR MAX TEMP:  88;

$$

AZZ009>014-017-291900-
NORTHEAST ARIZONA

CITY           SKY/WX    TMP DP  RH WIND       PRES   REMARKS
WINSLOW        SUNNY     89  52  28 MISG      30.25F
6HR MIN TEMP:  61; 6HR MAX TEMP:  89;

SAINT JOHNS    SUNNY     80  51  36 VRB3      30.30F
6HR MIN TEMP:  62; 6HR MAX TEMP:  82;

WINDOW ROCK    MOSUNNY   78  53  41 CALM      30.37F
6HR MIN TEMP:  58; 6HR MAX TEMP:  79;

SHOW LOW       SUNNY     77  48  36 NW6       30.38S
$$

AZZ023-291900-
GREATER PHOENIX AREA

CITY           SKY/WX    TMP DP  RH WIND       PRES   REMARKS
PHOENIX        MOSUNNY  101  58  24 W6        29.95F HX 100
6HR MIN TEMP:  92; 6HR MAX TEMP: 102;

BUCKEYE          N/A     99  57  25 S6        29.97S
GLENDALE       MOSUNNY  100  61  27 SW7       29.97F HX 101
LUKE AFB       NOT AVBL
6HR MIN TEMP:  84; 6HR MAX TEMP: 100;

DEER VALLEY    SUNNY     97  59  28 S5        29.98F
6HR MIN TEMP:  83; 6HR MAX TEMP:  97;

SCOTTSDALE     SUNNY     99  60  27 VRB5      30.00F
6HR MIN TEMP:  85; 6HR MAX TEMP:  99;

MESA-FALCON    PTSUNNY   97  61  30 SW9       29.98F
MESA-GATEWAY   MOSUNNY   99  59  26 SW6       30.00S
CHANDLER       PTSUNNY   99  61  28 SW5       29.98F
$$

AZZ027-028-291900-
SOUTHWEST MARICOPA COUNTY AND PINAL COUNTY

CITY           SKY/WX    TMP DP  RH WIND       PRES   REMARKS
CASA GRANDE    SUNNY     99  59  26 CALM      30.01S
6HR MIN TEMP:  81; 6HR MAX TEMP:  99;

GILA BEND      PTCLDY   102  57  22 W3        29.97S HX 101
$$

AZZ503-504-507>509-291900-
SOUTHEAST ARIZONA

CITY           SKY/WX    TMP DP  RH WIND       PRES   REMARKS
TUCSON         MOSUNNY   94  58  29 VRB3      30.12S
6HR MIN TEMP:  77; 6HR MAX TEMP:  94;

DAVIS-MONTHAN  SUNNY     92  59  32 VRB3      30.10F
6HR MIN TEMP:  76; 6HR MAX TEMP:  92;

RYAN FIELD       N/A     95  57  28 CALM      30.10F
NOGALES        MOSUNNY   89  58  34 SW7       30.20F
6HR MIN TEMP:  66; 6HR MAX TEMP:  90;

SIERRA VISTA   CLOUDY    86  55  35 VRB7      30.26F
DOUGLAS        MOSUNNY   85  60  42 S10G18    30.23F
6HR MIN TEMP:  67; 6HR MAX TEMP:  85;

SAFFORD        SUNNY     91  59  33 VRB5      30.12F
6HR MIN TEMP:  73; 6HR MAX TEMP:  91;

$$

AZZ020-021-025-026-031-291900-
SOUTHWEST ARIZONA

CITY           SKY/WX    TMP DP  RH WIND       PRES   REMARKS
YUMA           MOSUNNY  103  54  19 VRB3      29.91S HX 101
6HR MIN TEMP:  85; 6HR MAX TEMP: 104;

$$

CAZ031-033-041-043-047-048-061-291900-
SOUTHERN CALIFORNIA

CITY           SKY/WX    TMP DP  RH WIND       PRES   REMARKS
DOWNTOWN L.A.  MOSUNNY   82  60  47 VRB3      30.02F
6HR MIN TEMP:  68; 6HR MAX TEMP:  82;

L.A. AIRPORT   PTSUNNY   73  64  73 W9        30.04F
6HR MIN TEMP:  67; 6HR MAX TEMP:  74;

SAN DIEGO      PTSUNNY   81  63  54 NW9       30.04S
6HR MIN TEMP:  71; 6HR MAX TEMP:  81;

BURBANK        SUNNY     84  49  29 VRB3      30.04S
6HR MIN TEMP:  70; 6HR MAX TEMP:  84;

ONTARIO        PTSUNNY   88  40  18 VRB5      30.04F
6HR MIN TEMP:  71; 6HR MAX TEMP:  88;

RIVERSIDE      MOSUNNY   88  40  18 VRB3      30.04F
6HR MIN TEMP:  69; 6HR MAX TEMP:  88;

PALM SPRINGS   SUNNY    102  49  16 CALM      29.93F
6HR MIN TEMP:  83; 6HR MAX TEMP: 103;

EL CENTRO NAS  MOSUNNY  105  49  15 NW5       29.88F HX 102
6HR MIN TEMP:  84; 6HR MAX TEMP: 105;

IMPERIAL       SUNNY    103  50  17 NW8       29.88F HX 100
6HR MIN TEMP:  82; 6HR MAX TEMP: 104;

BLYTHE           N/A    N/A N/A N/A MISG      29.91F
NEEDLES        SUNNY     97  62  31 SE3       29.96F
6HR MIN TEMP:  82; 6HR MAX TEMP:  97;

$$

NVZ020-UTZ003-291900-
SOUTHERN NEVADA-UTAH

CITY           SKY/WX    TMP DP  RH WIND       PRES   REMARKS
LAS VEGAS      MOSUNNY   92  57  30 CALM      30.02F
6HR MIN TEMP:  79; 6HR MAX TEMP:  93;

SALT LAKE CITY CLOUDY    72  62  71 N15       30.19F
6HR MIN TEMP:  68; 6HR MAX TEMP:  73; 6HR PCP:  0.02;

$$

NMZ009-TXZ055-291900-
NEW MEXICO-WEST TEXAS

CITY           SKY/WX    TMP DP  RH WIND       PRES   REMARKS
ALBUQUERQUE    MOSUNNY   75  60  59 S7        30.30F
6HR MIN TEMP:  66; 6HR MAX TEMP:  76;

EL PASO        LGT RAIN  72  66  81 N8        30.23S
6HR MIN TEMP:  68; 6HR MAX TEMP:  74; 6HR PCP:  0.09;

$$


........................KEY........................
SKY/WX - SKY CONDITION/WEATHER
TMP    - TEMPERATURE IN FAHRENHEIT
DP     - DEW POINT IN FAHRENHEIT
RH     - RELATIVE HUMIDITY IN PERCENT
WIND   - DIRECTION AND SPEED IN MILES PER HOUR (MPH)
VRB    - VARIABLE WIND DIRECTION
PRES   - MEAN SEA LEVEL PRESSURE IN INCHES OF MERCURY
         F - FALLING PRESSURE   R - RISING PRESSURE
         S - STEADY PRESSURE
VSB    - VISIBILITY IN MILES
HX     - HEAT INDEX IN FAHRENHEIT
WCI    - WIND CHILL INDEX IN FAHRENHEIT
TC     - TEMPERATURE IN CELSIUS WHICH IS ALSO KNOWN AS
         TEMPERATURE IN CENTIGRADE
AFB    - AIR FORCE BASE
         LUKE AFB IS LUKE AIR FORCE BASE
         DAVIS-MONTHAN IS DAVIS-MONTHAN AIR FORCE BASE
NAS    - NAVAL AIR STATION
         EL CENTRO NAS IS EL CENTRO NAVAL AIR STATION
N/A    - NOT AVAILABLE


USA.gov is the U.S. government's official web portal to all federal, state and local government web resources and services.